"read_dt","SO2 (ppb)","flags","PMT voltage (V)","lamp voltage (V)","lamp intensity (Hz)","internal temp (C)","react chamber temp (C)","sample flow (l/min)","pres (mmHg)","SO2 bkg (ppb)","SO2 coefficient"
2014-01-29 00:00:00,3982E-4,5C000000,-0724,0975,10715,023.5,045.2,0.403,746.5,01.17,0.508
2014-01-29 00:01:00,4138E-4,5C000000,-0724,0975,10820,023.5,045.2,0.402,746.4,01.17,0.508
2014-01-29 00:02:00,4535E-4,5C000000,-0724,0975,10714,023.5,045.2,0.402,746.4,01.17,0.508
2014-01-29 00:03:00,4104E-4,5C000000,-0724,0975,10663,023.5,045.2,0.402,746.5,01.17,0.508
2014-01-29 00:04:00,3702E-4,5C000000,-0724,0975,10739,023.5,045.2,0.402,746.5,01.17,0.508
2014-01-29 00:05:00,4239E-4,5C000000,-0724,0974,10692,023.5,045.2,0.403,746.5,01.17,0.508
2014-01-29 00:06:00,4949E-4,5C000000,-0724,0975,10880,023.5,045.2,0.403,746.5,01.17,0.508
2014-01-29 00:07:00,3608E-4,5C000000,-0724,0974,10865,023.5,045.2,0.403,746.5,01.17,0.508
2014-01-29 00:08:00,4705E-4,5C000000,-0724,0975,10768,023.5,045.2,0.403,746.5,01.17,0.508
2014-01-29 00:09:00,3991E-4,5C000000,-0724,0974,10784,023.5,045.2,0.402,746.5,01.17,0.508
2014-01-29 00:10:00,4877E-4,5C000000,-0724,0975,10828,023.5,045.2,0.402,746.5,01.17,0.508
2014-01-29 00:11:00,3641E-4,5C000000,-0724,0975,10837,023.5,045.2,0.402,746.5,01.17,0.508
2014-01-29 00:12:00,3879E-4,5C000000,-0724,0974,10789,023.5,045.2,0.403,746.5,01.17,0.508
2014-01-29 00:13:00,3866E-4,5C000000,-0724,0975,10869,023.6,045.2,0.403,746.5,01.17,0.508
2014-01-29 00:14:00,3662E-4,5C000000,-0724,0975,10894,023.5,045.2,0.403,746.5,01.17,0.508
2014-01-29 00:15:00,4003E-4,5C000000,-0724,0976,10615,023.5,045.2,0.403,746.5,01.17,0.508
2014-01-29 00:16:00,3653E-4,5C000000,-0724,0975,10786,023.6,045.2,0.402,746.5,01.17,0.508
2014-01-29 00:17:00,4548E-4,5C000000,-0724,0975,10784,023.5,045.1,0.402,746.5,01.17,0.508
2014-01-29 00:18:00,3896E-4,5C000000,-0724,0975,10809,023.5,045.2,0.402,746.5,01.17,0.508
2014-01-29 00:19:00,4518E-4,5C000000,-0724,0976,10727,023.6,045.2,0.403,746.5,01.17,0.508
2014-01-29 00:20:00,3833E-4,5C000000,-0724,0975,10868,023.6,045.1,0.403,746.5,01.17,0.508
2014-01-29 00:21:00,3604E-4,5C000000,-0724,0975,10825,023.5,045.1,0.403,746.5,01.17,0.508
2014-01-29 00:22:00,4205E-4,5C000000,-0724,0974,10817,023.6,045.2,0.403,746.5,01.17,0.508
2014-01-29 00:23:00,3686E-4,5C000000,-0724,0975,10808,023.6,045.2,0.402,746.5,01.17,0.508
2014-01-29 00:24:00,3687E-4,5C000000,-0724,0975,10773,023.6,045.2,0.402,746.5,01.17,0.508
2014-01-29 00:25:00,4034E-4,5C000000,-0724,0975,10850,023.6,045.2,0.402,746.5,01.17,0.508
2014-01-29 00:26:00,4417E-4,5C000000,-0724,0975,10844,023.6,045.2,0.402,746.4,01.17,0.508
2014-01-29 00:27:00,4466E-4,5C000000,-0724,0976,10850,023.6,045.2,0.403,746.4,01.17,0.508
2014-01-29 00:28:00,3485E-4,5C000000,-0724,0975,10778,023.6,045.2,0.403,746.4,01.17,0.508
2014-01-29 00:29:00,5196E-4,5C000000,-0724,0975,10807,023.6,045.2,0.403,746.4,01.17,0.508
2014-01-29 00:30:00,4352E-4,5C000000,-0724,0975,10842,023.6,045.2,0.403,746.4,01.17,0.508
2014-01-29 00:31:00,3579E-4,5C000000,-0724,0975,10813,023.6,045.2,0.402,746.4,01.17,0.508
2014-01-29 00:32:00,4286E-4,5C000000,-0724,0976,10863,023.6,045.2,0.402,746.4,01.17,0.508
2014-01-29 00:33:00,3963E-4,5C000000,-0724,0975,10740,023.6,045.2,0.402,746.5,01.17,0.508
2014-01-29 00:34:00,3644E-4,5C000000,-0724,0976,10725,023.6,045.2,0.402,746.5,01.17,0.508
2014-01-29 00:35:00,3558E-4,5C000000,-0724,0975,10726,023.6,045.2,0.403,746.5,01.17,0.508
2014-01-29 00:36:00,3755E-4,5C000000,-0724,0975,10803,023.6,045.2,0.403,746.5,01.17,0.508
2014-01-29 00:37:00,4683E-4,5C000000,-0724,0976,10821,023.6,045.2,0.403,746.5,01.17,0.508
2014-01-29 00:38:00,4553E-4,5C000000,-0724,0975,10805,023.6,045.2,0.402,746.5,01.17,0.508
2014-01-29 00:39:00,4425E-4,5C000000,-0724,0975,10721,023.6,045.2,0.402,746.4,01.17,0.508
2014-01-29 00:40:00,4194E-4,5C000000,-0724,0975,10686,023.6,045.2,0.402,746.4,01.17,0.508
2014-01-29 00:41:00,4634E-4,5C000000,-0724,0975,10583,023.6,045.2,0.402,746.4,01.17,0.508
2014-01-29 00:42:00,5460E-4,5C000000,-0724,0975,10895,023.6,045.2,0.402,746.5,01.17,0.508
2014-01-29 00:43:00,4379E-4,5C000000,-0724,0976,10784,023.6,045.2,0.403,746.5,01.17,0.508
2014-01-29 00:44:00,3356E-4,5C000000,-0724,0974,10716,023.6,045.2,0.403,746.5,01.17,0.508
2014-01-29 00:45:00,4322E-4,5C000000,-0724,0975,10769,023.6,045.2,0.403,746.5,01.17,0.508
2014-01-29 00:46:00,4069E-4,5C000000,-0724,0975,10686,023.6,045.2,0.403,746.5,01.17,0.508
2014-01-29 00:47:00,4567E-4,5C000000,-0724,0975,10768,023.6,045.2,0.403,746.5,01.17,0.508
2014-01-29 00:48:00,3910E-4,5C000000,-0724,0975,10804,023.6,045.2,0.403,746.5,01.17,0.508
2014-01-29 00:49:00,5057E-4,5C000000,-0724,0975,10819,023.6,045.2,0.402,746.5,01.17,0.508
2014-01-29 00:50:00,4877E-4,5C000000,-0724,0975,10854,023.6,045.2,0.402,746.5,01.17,0.508
2014-01-29 00:51:00,4238E-4,5C000000,-0724,0975,10783,023.6,045.2,0.402,746.5,01.17,0.508
2014-01-29 00:52:00,4223E-4,5C000000,-0724,0975,10784,023.6,045.2,0.402,746.5,01.17,0.508
2014-01-29 00:53:00,5049E-4,5C000000,-0724,0975,10854,023.7,045.2,0.403,746.5,01.17,0.508
2014-01-29 00:54:00,4232E-4,5C000000,-0724,0975,10739,023.6,045.2,0.403,746.5,01.17,0.508
2014-01-29 00:55:00,2802E-4,5C000000,-0724,0976,10741,023.7,045.2,0.403,746.5,01.17,0.508
2014-01-29 00:56:00,5090E-4,5C000000,-0724,0976,10674,023.7,045.2,0.402,746.5,01.17,0.508
2014-01-29 00:57:00,4732E-4,5C000000,-0724,0975,10837,023.6,045.2,0.402,746.5,01.17,0.508
2014-01-29 00:58:00,5102E-4,5C000000,-0724,0975,10836,023.7,045.2,0.402,746.5,01.17,0.508
2014-01-29 00:59:00,3400E-4,5C000000,-0724,0975,10589,023.7,045.1,0.402,746.5,01.17,0.508
2014-01-29 01:00:00,4300E-4,5C000000,-0724,0975,10850,023.7,045.2,0.402,746.6,01.17,0.508
2014-01-29 01:01:00,4849E-4,5C000000,-0724,0976,10674,023.7,045.2,0.403,746.5,01.17,0.508
2014-01-29 01:02:00,4542E-4,5C000000,-0724,0976,10755,023.7,045.2,0.403,746.5,01.17,0.508
2014-01-29 01:03:00,3563E-4,5C000000,-0724,0975,10903,023.7,045.2,0.403,746.5,01.17,0.508
2014-01-29 01:04:00,4082E-4,5C000000,-0724,0975,10671,023.7,045.2,0.402,746.6,01.17,0.508
2014-01-29 01:05:00,3965E-4,5C000000,-0724,0976,10848,023.7,045.2,0.402,746.6,01.17,0.508
2014-01-29 01:06:00,4629E-4,5C000000,-0724,0976,10791,023.7,045.2,0.402,746.6,01.17,0.508
2014-01-29 01:07:00,4311E-4,5C000000,-0724,0976,10727,023.7,045.2,0.402,746.6,01.17,0.508
2014-01-29 01:08:00,3929E-4,5C000000,-0724,0975,10675,023.7,045.2,0.403,746.5,01.17,0.508
2014-01-29 01:09:00,4670E-4,5C000000,-0724,0975,10795,023.7,045.2,0.403,746.5,01.17,0.508
2014-01-29 01:10:00,4493E-4,5C000000,-0724,0975,10783,023.7,045.2,0.403,746.5,01.17,0.508
2014-01-29 01:11:00,3978E-4,5C000000,-0724,0974,10792,023.7,045.2,0.402,746.5,01.17,0.508
2014-01-29 01:12:00,3705E-4,5C000000,-0724,0975,10771,023.7,045.2,0.402,746.5,01.17,0.508
2014-01-29 01:13:00,3714E-4,5C000000,-0724,0975,10669,023.7,045.2,0.402,746.5,01.17,0.508
2014-01-29 01:14:00,4120E-4,5C000000,-0724,0976,10703,023.7,045.2,0.402,746.5,01.17,0.508
2014-01-29 01:15:00,4100E-4,5C000000,-0724,0976,10694,023.7,045.2,0.402,746.5,01.17,0.508
2014-01-29 01:16:00,3615E-4,5C000000,-0724,0976,10868,023.7,045.2,0.402,746.5,01.17,0.508
2014-01-29 01:17:00,5103E-4,5C000000,-0724,0976,10784,023.7,045.2,0.403,746.5,01.17,0.508
2014-01-29 01:18:00,4271E-4,5C000000,-0724,0975,10775,023.7,045.2,0.402,746.5,01.17,0.508
2014-01-29 01:19:00,3899E-4,5C000000,-0724,0976,10761,023.7,045.2,0.402,746.5,01.17,0.508
2014-01-29 01:20:00,4536E-4,5C000000,-0724,0975,10748,023.7,045.2,0.402,746.5,01.17,0.508
2014-01-29 01:21:00,4615E-4,5C000000,-0724,0975,10781,023.7,045.2,0.402,746.5,01.17,0.508
2014-01-29 01:22:00,4133E-4,5C000000,-0724,0975,10803,023.7,045.2,0.402,746.5,01.17,0.508
2014-01-29 01:23:00,3712E-4,5C000000,-0724,0975,10778,023.7,045.2,0.402,746.5,01.17,0.508
2014-01-29 01:24:00,5109E-4,5C000000,-0724,0976,10758,023.7,045.2,0.403,746.6,01.17,0.508
2014-01-29 01:25:00,4194E-4,5C000000,-0724,0976,10804,023.7,045.2,0.403,746.6,01.17,0.508
2014-01-29 01:26:00,3851E-4,5C000000,-0724,0975,10808,023.7,045.2,0.402,746.6,01.17,0.508
2014-01-29 01:27:00,3879E-4,5C000000,-0724,0976,10814,023.7,045.2,0.402,746.5,01.17,0.508
2014-01-29 01:28:00,4325E-4,5C000000,-0724,0976,10876,023.7,045.2,0.402,746.5,01.17,0.508
2014-01-29 01:29:00,4437E-4,5C000000,-0724,0975,10794,023.7,045.2,0.402,746.5,01.17,0.508
2014-01-29 01:30:00,4186E-4,5C000000,-0724,0975,10586,023.7,045.2,0.402,746.5,01.17,0.508
2014-01-29 01:31:00,3862E-4,5C000000,-0724,0976,10864,023.7,045.2,0.402,746.5,01.17,0.508
2014-01-29 01:32:00,4977E-4,5C000000,-0724,0975,10874,023.7,045.2,0.402,746.5,01.17,0.508
2014-01-29 01:33:00,3737E-4,5C000000,-0724,0975,10691,023.7,045.2,0.403,746.5,01.17,0.508
2014-01-29 01:34:00,4256E-4,5C000000,-0724,0975,10760,023.7,045.2,0.402,746.5,01.17,0.508
2014-01-29 01:35:00,3981E-4,5C000000,-0724,0976,10790,023.7,045.2,0.402,746.5,01.17,0.508
2014-01-29 01:36:00,3711E-4,5C000000,-0724,0975,10823,023.7,045.2,0.402,746.5,01.17,0.508
2014-01-29 01:37:00,4051E-4,5C000000,-0724,0975,10854,023.7,045.2,0.402,746.4,01.17,0.508
2014-01-29 01:38:00,4923E-4,5C000000,-0724,0976,10677,023.7,045.2,0.402,746.5,01.17,0.508
2014-01-29 01:39:00,4510E-4,5C000000,-0724,0976,10788,023.7,045.2,0.402,746.5,01.17,0.508
2014-01-29 01:40:00,4558E-4,5C000000,-0724,0976,10831,023.8,045.2,0.402,746.5,01.17,0.508
2014-01-29 01:41:00,3603E-4,5C000000,-0724,0976,10757,023.8,045.2,0.403,746.5,01.17,0.508
2014-01-29 01:42:00,4149E-4,5C000000,-0724,0975,10813,023.7,045.2,0.402,746.5,01.17,0.508
2014-01-29 01:43:00,3999E-4,5C000000,-0724,0975,10800,023.8,045.2,0.402,746.5,01.17,0.508
2014-01-29 01:44:00,4463E-4,5C000000,-0724,0976,10817,023.8,045.2,0.402,746.5,01.17,0.508
2014-01-29 01:45:00,3698E-4,5C000000,-0724,0976,10790,023.8,045.2,0.402,746.5,01.17,0.508
2014-01-29 01:46:00,4149E-4,5C000000,-0724,0976,10752,023.8,045.2,0.402,746.5,01.17,0.508
2014-01-29 01:47:00,3859E-4,5C000000,-0724,0975,10676,023.8,045.2,0.402,746.5,01.17,0.508
2014-01-29 01:48:00,3008E-4,5C000000,-0724,0976,10804,023.8,045.2,0.403,746.5,01.17,0.508
2014-01-29 01:49:00,3405E-4,5C000000,-0724,0976,10607,023.8,045.2,0.402,746.5,01.17,0.508
2014-01-29 01:50:00,4084E-4,5C000000,-0724,0975,10601,023.8,045.2,0.402,746.5,01.17,0.508
2014-01-29 01:51:00,3849E-4,5C000000,-0724,0976,10816,023.8,045.2,0.402,746.5,01.17,0.508
2014-01-29 01:52:00,4793E-4,5C000000,-0724,0976,10764,023.8,045.2,0.402,746.5,01.17,0.508
2014-01-29 01:53:00,4381E-4,5C000000,-0724,0975,10858,023.8,045.2,0.402,746.4,01.17,0.508
2014-01-29 01:54:00,3690E-4,5C000000,-0724,0975,10574,023.8,045.2,0.402,746.4,01.17,0.508
2014-01-29 01:55:00,4517E-4,5C000000,-0724,0975,10674,023.8,045.2,0.402,746.3,01.17,0.508
2014-01-29 01:56:00,3391E-4,5C000000,-0724,0976,10807,023.8,045.2,0.402,746.3,01.17,0.508
2014-01-29 01:57:00,3627E-4,5C000000,-0724,0975,10853,023.8,045.2,0.402,746.3,01.17,0.508
2014-01-29 01:58:00,3819E-4,5C000000,-0724,0975,10660,023.8,045.2,0.402,746.3,01.17,0.508
2014-01-29 01:59:00,3385E-4,5C000000,-0724,0975,10743,023.8,045.2,0.402,746.3,01.17,0.508
2014-01-29 02:00:00,3596E-4,5C000000,-0724,0976,10575,023.8,045.2,0.402,746.3,01.17,0.508
2014-01-29 02:01:00,3705E-4,5C000000,-0724,0977,10828,023.8,045.2,0.402,746.3,01.17,0.508
2014-01-29 02:02:00,3793E-4,5C000000,-0724,0975,10771,023.8,045.2,0.402,746.3,01.17,0.508
2014-01-29 02:03:00,2840E-4,5C000000,-0724,0975,10789,023.8,045.2,0.402,746.3,01.17,0.508
2014-01-29 02:04:00,3608E-4,5C000000,-0724,0975,10757,023.9,045.2,0.402,746.2,01.17,0.508
2014-01-29 02:05:00,4479E-4,5C000000,-0724,0976,10761,023.8,045.2,0.402,746.2,01.17,0.508
2014-01-29 02:06:00,3855E-4,5C000000,-0724,0976,10695,023.8,045.2,0.402,746.2,01.17,0.508
2014-01-29 02:07:00,2656E-4,5C000000,-0724,0975,10678,023.8,045.2,0.402,746.3,01.17,0.508
2014-01-29 02:08:00,3675E-4,5C000000,-0724,0976,10771,023.8,045.2,0.402,746.2,01.17,0.508
2014-01-29 02:09:00,3293E-4,5C000000,-0724,0976,10523,023.8,045.2,0.402,746.3,01.17,0.508
2014-01-29 02:10:00,4257E-4,5C000000,-0724,0976,10808,023.9,045.2,0.402,746.3,01.17,0.508
2014-01-29 02:11:00,3402E-4,5C000000,-0724,0976,10903,023.9,045.2,0.402,746.3,01.17,0.508
2014-01-29 02:12:00,3841E-4,5C000000,-0724,0976,10825,023.9,045.2,0.402,746.3,01.17,0.508
2014-01-29 02:13:00,3430E-4,5C000000,-0724,0976,10769,023.9,045.2,0.402,746.3,01.17,0.508
2014-01-29 02:14:00,2871E-4,5C000000,-0724,0976,10781,023.9,045.2,0.402,746.3,01.17,0.508
2014-01-29 02:15:00,4459E-4,5C000000,-0724,0975,10863,023.9,045.2,0.402,746.3,01.17,0.508
2014-01-29 02:16:00,3970E-4,5C000000,-0724,0976,10743,023.9,045.2,0.402,746.3,01.17,0.508
2014-01-29 02:17:00,4550E-4,5C000000,-0724,0975,10860,023.9,045.2,0.402,746.3,01.17,0.508
2014-01-29 02:18:00,3678E-4,5C000000,-0724,0976,10898,023.9,045.2,0.402,746.3,01.17,0.508
2014-01-29 02:19:00,2633E-4,5C000000,-0724,0975,10698,023.9,045.2,0.402,746.3,01.17,0.508
2014-01-29 02:20:00,3799E-4,5C000000,-0724,0975,10713,023.9,045.2,0.402,746.3,01.17,0.508
2014-01-29 02:21:00,3379E-4,5C000000,-0724,0976,10597,023.9,045.2,0.402,746.3,01.17,0.508
2014-01-29 02:22:00,3942E-4,5C000000,-0724,0976,10809,023.9,045.2,0.402,746.4,01.17,0.508
2014-01-29 02:23:00,3870E-4,5C000000,-0724,0976,10751,023.9,045.2,0.402,746.4,01.17,0.508
2014-01-29 02:24:00,3593E-4,5C000000,-0724,0976,10704,023.9,045.2,0.402,746.4,01.17,0.508
2014-01-29 02:25:00,3920E-4,5C000000,-0724,0977,10600,023.9,045.2,0.402,746.4,01.17,0.508
2014-01-29 02:26:00,3463E-4,5C000000,-0724,0975,10708,023.9,045.2,0.402,746.4,01.17,0.508
2014-01-29 02:27:00,3085E-4,5C000000,-0724,0976,10770,023.9,045.2,0.402,746.4,01.17,0.508
2014-01-29 02:28:00,3275E-4,5C000000,-0724,0976,10774,023.9,045.2,0.402,746.4,01.17,0.508
2014-01-29 02:29:00,4535E-4,5C000000,-0724,0976,10668,023.9,045.2,0.402,746.4,01.17,0.508
2014-01-29 02:30:00,3748E-4,5C000000,-0724,0976,10754,023.9,045.2,0.402,746.5,01.17,0.508
2014-01-29 02:31:00,3308E-4,5C000000,-0724,0976,10746,023.9,045.2,0.402,746.5,01.17,0.508
2014-01-29 02:32:00,3138E-4,5C000000,-0724,0975,10751,023.9,045.2,0.402,746.5,01.17,0.508
2014-01-29 02:33:00,2649E-4,5C000000,-0724,0976,10844,023.9,045.2,0.402,746.5,01.17,0.508
2014-01-29 02:34:00,3204E-4,5C000000,-0724,0975,10789,023.9,045.2,0.402,746.4,01.17,0.508
2014-01-29 02:35:00,3912E-4,5C000000,-0724,0977,10804,023.9,045.2,0.402,746.3,01.17,0.508
2014-01-29 02:36:00,3716E-4,5C000000,-0724,0975,10796,023.9,045.2,0.402,746.3,01.17,0.508
2014-01-29 02:37:00,3368E-4,5C000000,-0724,0976,10806,024.0,045.2,0.402,746.3,01.17,0.508
2014-01-29 02:38:00,2986E-4,5C000000,-0724,0976,10804,023.9,045.2,0.401,746.2,01.17,0.508
2014-01-29 02:39:00,3137E-4,5C000000,-0724,0975,10848,024.0,045.2,0.402,746.2,01.17,0.508
2014-01-29 02:40:00,3341E-4,5C000000,-0724,0976,10781,023.9,045.2,0.402,746.2,01.17,0.508
2014-01-29 02:41:00,3473E-4,5C000000,-0724,0975,10762,024.0,045.2,0.402,746.2,01.17,0.508
2014-01-29 02:42:00,2715E-4,5C000000,-0724,0976,10725,023.9,045.2,0.402,746.2,01.17,0.508
2014-01-29 02:43:00,3847E-4,5C000000,-0724,0975,10617,023.9,045.2,0.402,746.2,01.17,0.508
2014-01-29 02:44:00,2992E-4,5C000000,-0724,0976,10840,024.0,045.2,0.402,746.2,01.17,0.508
2014-01-29 02:45:00,3522E-4,5C000000,-0724,0975,10807,024.0,045.2,0.402,746.2,01.17,0.508
2014-01-29 02:46:00,2298E-4,5C000000,-0724,0976,10824,024.0,045.2,0.401,746.2,01.17,0.508
2014-01-29 02:47:00,2723E-4,5C000000,-0724,0976,10632,024.0,045.2,0.401,746.3,01.17,0.508
2014-01-29 02:48:00,2877E-4,5C000000,-0724,0977,10751,023.9,045.2,0.401,746.3,01.17,0.508
2014-01-29 02:49:00,2670E-4,5C000000,-0724,0975,10826,024.0,045.2,0.402,746.3,01.17,0.508
2014-01-29 02:50:00,3331E-4,5C000000,-0724,0976,10715,024.0,045.2,0.402,746.3,01.17,0.508
2014-01-29 02:51:00,3065E-4,5C000000,-0724,0976,10728,024.0,045.2,0.402,746.3,01.17,0.508
2014-01-29 02:52:00,2865E-4,5C000000,-0724,0976,10803,024.0,045.2,0.402,746.3,01.17,0.508
2014-01-29 02:53:00,2959E-4,5C000000,-0724,0976,10844,024.0,045.2,0.402,746.3,01.17,0.508
2014-01-29 02:54:00,3845E-4,5C000000,-0724,0976,10784,024.0,045.2,0.402,746.3,01.17,0.508
2014-01-29 02:55:00,3771E-4,5C000000,-0724,0976,10863,024.0,045.2,0.401,746.2,01.17,0.508
2014-01-29 02:56:00,3027E-4,5C000000,-0724,0976,10764,024.0,045.2,0.401,746.2,01.17,0.508
2014-01-29 02:57:00,3088E-4,5C000000,-0724,0976,10730,024.0,045.2,0.401,746.2,01.17,0.508
2014-01-29 02:58:00,4649E-4,5C000000,-0724,0976,10803,024.0,045.2,0.402,746.2,01.17,0.508
2014-01-29 02:59:00,3312E-4,5C000000,-0724,0975,10847,024.0,045.2,0.402,746.2,01.17,0.508
2014-01-29 03:00:00,2699E-4,5C000000,-0724,0976,10752,024.0,045.2,0.402,746.2,01.17,0.508
2014-01-29 03:01:00,3411E-4,5C000000,-0724,0976,10824,024.0,045.2,0.402,746.2,01.17,0.508
2014-01-29 03:02:00,3141E-4,5C000000,-0724,0976,10816,024.0,045.2,0.402,746.2,01.17,0.508
2014-01-29 03:03:00,2536E-4,5C000000,-0724,0976,10880,024.0,045.2,0.401,746.2,01.17,0.508
2014-01-29 03:04:00,3132E-4,5C000000,-0724,0976,10864,024.0,045.2,0.401,746.1,01.17,0.508
2014-01-29 03:05:00,3399E-4,5C000000,-0724,0976,10844,024.0,045.2,0.401,746.2,01.17,0.508
2014-01-29 03:06:00,3647E-4,5C000000,-0724,0976,10759,024.0,045.2,0.401,746.2,01.17,0.508
2014-01-29 03:07:00,4577E-4,5C000000,-0724,0976,10895,024.0,045.2,0.402,746.2,01.17,0.508
2014-01-29 03:08:00,2218E-4,5C000000,-0724,0977,10772,024.0,045.2,0.402,746.2,01.17,0.508
2014-01-29 03:09:00,4125E-4,5C000000,-0724,0976,10761,024.0,045.2,0.402,746.2,01.17,0.508
2014-01-29 03:10:00,3539E-4,5C000000,-0724,0976,10840,024.0,045.2,0.402,746.2,01.17,0.508
2014-01-29 03:11:00,3448E-4,5C000000,-0724,0976,10770,024.0,045.2,0.402,746.2,01.17,0.508
2014-01-29 03:12:00,3073E-4,5C000000,-0724,0976,10687,024.0,045.2,0.401,746.2,01.17,0.508
2014-01-29 03:13:00,3324E-4,5C000000,-0724,0976,10798,024.1,045.2,0.401,746.2,01.17,0.508
2014-01-29 03:14:00,3415E-4,5C000000,-0724,0977,10674,024.1,045.2,0.401,746.1,01.17,0.508
2014-01-29 03:15:00,3806E-4,5C000000,-0724,0976,10830,024.1,045.2,0.401,746.1,01.17,0.508
2014-01-29 03:16:00,2948E-4,5C000000,-0724,0976,10771,024.1,045.2,0.402,746.2,01.17,0.508
2014-01-29 03:17:00,3229E-4,5C000000,-0724,0976,10740,024.1,045.2,0.402,746.2,01.17,0.508
2014-01-29 03:18:00,2746E-4,5C000000,-0724,0977,10796,024.1,045.2,0.402,746.2,01.17,0.508
2014-01-29 03:19:00,3516E-4,5C000000,-0724,0976,10733,024.1,045.2,0.402,746.2,01.17,0.508
2014-01-29 03:20:00,3351E-4,5C000000,-0724,0976,10756,024.1,045.2,0.402,746.2,01.17,0.508
2014-01-29 03:21:00,2844E-4,5C000000,-0724,0976,10713,024.1,045.2,0.401,746.2,01.17,0.508
2014-01-29 03:22:00,3111E-4,5C000000,-0724,0976,10782,024.1,045.2,0.401,746.2,01.17,0.508
2014-01-29 03:23:00,3577E-4,5C000000,-0724,0976,10843,024.1,045.2,0.401,746.2,01.17,0.508
2014-01-29 03:24:00,1974E-4,5C000000,-0724,0977,10676,024.1,045.2,0.401,746.2,01.17,0.508
2014-01-29 03:25:00,2657E-4,5C000000,-0724,0976,10839,024.1,045.2,0.402,746.3,01.17,0.508
2014-01-29 03:26:00,2618E-4,5C000000,-0724,0976,10662,024.1,045.2,0.402,746.3,01.17,0.508
2014-01-29 03:27:00,2934E-4,5C000000,-0724,0976,10718,024.1,045.2,0.402,746.3,01.17,0.508
2014-01-29 03:28:00,2263E-4,5C000000,-0724,0977,10818,024.1,045.2,0.402,746.2,01.17,0.508
2014-01-29 03:29:00,2227E-4,5C000000,-0724,0975,10819,024.1,045.2,0.401,746.2,01.17,0.508
2014-01-29 03:30:00,2792E-4,5C000000,-0724,0976,10726,024.1,045.2,0.401,746.2,01.17,0.508
2014-01-29 03:31:00,3402E-4,5C000000,-0724,0976,10883,024.1,045.2,0.401,746.2,01.17,0.508
2014-01-29 03:32:00,1311E-4,5C000000,-0724,0975,10801,024.1,045.2,0.401,746.2,01.17,0.508
2014-01-29 03:33:00,3444E-4,5C000000,-0724,0976,10877,024.1,045.2,0.402,746.2,01.17,0.508
2014-01-29 03:34:00,2544E-4,5C000000,-0724,0977,10769,024.2,045.2,0.402,746.2,01.17,0.508
2014-01-29 03:35:00,2347E-4,5C000000,-0724,0976,10884,024.2,045.2,0.402,746.2,01.17,0.508
2014-01-29 03:36:00,9604E-5,5C000000,-0724,0976,10909,024.1,045.2,0.401,746.2,01.17,0.508
2014-01-29 03:37:00,1885E-4,5C000000,-0724,0976,10677,024.1,045.2,0.401,746.2,01.17,0.508
2014-01-29 03:38:00,2545E-4,5C000000,-0724,0977,10681,024.2,045.2,0.401,746.2,01.17,0.508
2014-01-29 03:39:00,3532E-4,5C000000,-0724,0976,10857,024.2,045.2,0.401,746.2,01.17,0.508
2014-01-29 03:40:00,2477E-4,5C000000,-0724,0975,10848,024.2,045.2,0.402,746.1,01.17,0.508
2014-01-29 03:41:00,2709E-4,5C000000,-0724,0976,10766,024.2,045.2,0.402,746.1,01.17,0.508
2014-01-29 03:42:00,2461E-4,5C000000,-0724,0977,10730,024.2,045.2,0.401,746.1,01.17,0.508
2014-01-29 03:43:00,2075E-4,5C000000,-0724,0975,10628,024.2,045.2,0.401,746.1,01.17,0.508
2014-01-29 03:44:00,1705E-4,5C000000,-0724,0975,10683,024.2,045.2,0.401,746.2,01.17,0.508
2014-01-29 03:45:00,1683E-4,5C000000,-0724,0976,10728,024.2,045.2,0.401,746.2,01.17,0.508
2014-01-29 03:46:00,1796E-4,5C000000,-0724,0975,10753,024.2,045.2,0.401,746.2,01.17,0.508
2014-01-29 03:47:00,1892E-4,5C000000,-0724,0976,10837,024.2,045.2,0.402,746.3,01.17,0.508
2014-01-29 03:48:00,1778E-4,5C000000,-0724,0976,10805,024.2,045.2,0.402,746.2,01.17,0.508
2014-01-29 03:49:00,1463E-4,5C000000,-0724,0975,10695,024.2,045.2,0.402,746.3,01.17,0.508
2014-01-29 03:50:00,1288E-4,5C000000,-0724,0976,10782,024.2,045.2,0.401,746.3,01.17,0.508
2014-01-29 03:51:00,1842E-4,5C000000,-0724,0976,10720,024.2,045.2,0.401,746.3,01.17,0.508
2014-01-29 03:52:00,2738E-4,5C000000,-0724,0976,10786,024.2,045.2,0.401,746.3,01.17,0.508
2014-01-29 03:53:00,2868E-4,5C000000,-0724,0976,10733,024.2,045.2,0.401,746.3,01.17,0.508
2014-01-29 03:54:00,2801E-4,5C000000,-0724,0976,10765,024.2,045.2,0.401,746.3,01.17,0.508
2014-01-29 03:55:00,3060E-4,5C000000,-0724,0977,10639,024.3,045.2,0.402,746.3,01.17,0.508
2014-01-29 03:56:00,2711E-4,5C000000,-0724,0976,10740,024.2,045.2,0.402,746.2,01.17,0.508
2014-01-29 03:57:00,2774E-4,5C000000,-0724,0976,10800,024.3,045.2,0.401,746.2,01.17,0.508
2014-01-29 03:58:00,3395E-4,5C000000,-0724,0978,10895,024.3,045.2,0.401,746.2,01.17,0.508
2014-01-29 03:59:00,2959E-4,5C000000,-0724,0977,10785,024.3,045.2,0.401,746.2,01.17,0.508
2014-01-29 04:00:00,2307E-4,5C000000,-0724,0976,10803,024.2,045.2,0.401,746.1,01.17,0.508
2014-01-29 04:01:00,2405E-4,5C000000,-0724,0977,10937,024.3,045.2,0.401,746.1,01.17,0.508
2014-01-29 04:02:00,1862E-4,5C000000,-0724,0977,10800,024.3,045.2,0.401,746.1,01.17,0.508
2014-01-29 04:03:00,1919E-4,5C000000,-0724,0976,10768,024.3,045.2,0.401,746.1,01.17,0.508
2014-01-29 04:04:00,2149E-4,5C000000,-0724,0976,10676,024.3,045.2,0.401,746.1,01.17,0.508
2014-01-29 04:05:00,2759E-4,5C000000,-0724,0977,10763,024.3,045.2,0.401,746.1,01.17,0.508
2014-01-29 04:06:00,1767E-4,5C000000,-0724,0976,10724,024.3,045.2,0.401,746.1,01.17,0.508
2014-01-29 04:07:00,1553E-4,5C000000,-0724,0977,10655,024.3,045.2,0.401,746.0,01.17,0.508
2014-01-29 04:08:00,2264E-4,5C000000,-0724,0976,10737,024.3,045.2,0.401,746.0,01.17,0.508
2014-01-29 04:09:00,5269E-5,5C000000,-0724,0975,10868,024.3,045.2,0.401,746.0,01.17,0.508
2014-01-29 04:10:00,2225E-4,5C000000,-0724,0976,10782,024.3,045.2,0.401,746.0,01.17,0.508
2014-01-29 04:11:00,2312E-4,5C000000,-0724,0976,10700,024.3,045.2,0.401,746.0,01.17,0.508
2014-01-29 04:12:00,1528E-4,5C000000,-0724,0977,10811,024.3,045.2,0.401,746.0,01.17,0.508
2014-01-29 04:13:00,2084E-4,5C000000,-0724,0977,10813,024.3,045.2,0.401,746.0,01.17,0.508
2014-01-29 04:14:00,1926E-4,5C000000,-0724,0977,10710,024.3,045.2,0.401,746.0,01.17,0.508
2014-01-29 04:15:00,1566E-4,5C000000,-0724,0977,10793,024.3,045.2,0.401,746.0,01.17,0.508
2014-01-29 04:16:00,1279E-4,5C000000,-0724,0977,10811,024.3,045.2,0.401,746.0,01.17,0.508
2014-01-29 04:17:00,1487E-4,5C000000,-0724,0977,10745,024.3,045.2,0.401,746.0,01.17,0.508
2014-01-29 04:18:00,3560E-5,5C000000,-0724,0977,10828,024.3,045.2,0.401,746.1,01.17,0.508
2014-01-29 04:19:00,1812E-4,5C000000,-0724,0977,10700,024.3,045.2,0.401,746.1,01.17,0.508
2014-01-29 04:20:00,1780E-4,5C000000,-0724,0977,10799,024.4,045.2,0.401,746.1,01.17,0.508